Location: Altamira
(10.5079°N, 66.8544°W)
Time: 09:21:15
(UTC+00:00)

Hubble Space Telescope - Visible Passes

Search period start: 26 June 2022 00:00
Search period end: 06 July 2022 00:00
Orbit: 532 x 536 km, 28.5° (Epoch: 25 June)

Date Brightness Start Highest point End Pass type
(mag) Time Alt. Az. Time Alt. Az. Time Alt. Az.
29 Jun 3.8 01:32:27 10° NW 01:32:57 13° NNW 01:32:57 13° NNW visible
29 Jun 3.3 23:41:25 10° N 23:42:36 11° NNE 23:43:47 10° NNE visible
30 Jun 3.4 01:20:21 10° NW 01:21:34 18° NW 01:21:34 18° NW visible
30 Jun 3.2 23:28:49 10° NNW 23:30:50 13° NNE 23:32:51 10° NE visible
01 Jul 2.9 01:08:18 10° NW 01:10:12 25° NW 01:10:12 25° NW visible
01 Jul 3.0 23:16:27 10° NNW 23:19:02 16° NNE 23:21:38 10° ENE visible
02 Jul 2.2 00:56:18 10° NW 00:58:51 36° NW 00:58:51 36° NW visible
03 Jul 1.4 00:44:22 10° WNW 00:47:34 53° WNW 00:47:34 53° WNW visible
04 Jul 1.0 00:32:30 10° WNW 00:36:18 60° SW 00:36:18 60° SW visible
05 Jul 1.3 00:20:42 10° WNW 00:24:37 44° SSW 00:25:05 42° S visible
